This is the latest recevied weather packets stored in our database for station/object EB2EMZ-15. If no packets are shown the sender has not sent any weather packets the latest 10 day(s).
| Time | Temp. | Humidity | Pressure | Rain* | Wind** | Luminosity | Snow |
|---|---|---|---|---|---|---|---|
| 1778147114 | 30° C | 38% | 991.5 hPa | 0 mm | - | - | - |
| 1778146819 | 30° C | 39% | 991.6 hPa | 0 mm | - | - | - |
| 1778146514 | 29.44° C | 40% | 991.6 hPa | 0 mm | - | - | - |
| 1778146219 | 28.89° C | 42% | 991.7 hPa | 0 mm | - | - | - |
| 1778145915 | 27.78° C | 44% | 991.7 hPa | 0 mm | - | - | - |
| 1778145619 | 27.22° C | 46% | 991.7 hPa | 0 mm | - | - | - |
| 1778145315 | 26.11° C | 47% | 991.8 hPa | 0 mm | - | - | - |
| 1778145018 | 25° C | 50% | 991.9 hPa | 0 mm | - | - | - |
| 1778144715 | 24.44° C | 53% | 991.8 hPa | 0 mm | - | - | - |
| 1778144415 | 23.33° C | 54% | 991.7 hPa | 0 mm | - | - | - |
| 1778144114 | 22.22° C | 55% | 991.8 hPa | 0 mm | - | - | - |
| 1778143817 | 22.22° C | 57% | 991.9 hPa | 0 mm | - | - | - |
| 1778143515 | 21.67° C | 59% | 991.9 hPa | 0 mm | - | - | - |
| 1778143218 | 21.67° C | 59% | 991.9 hPa | 0 mm | - | - | - |
| 1778142915 | 21.11° C | 59% | 991.9 hPa | 0 mm | - | - | - |
| 1778142617 | 21.11° C | 61% | 992.1 hPa | 0 mm | - | - | - |
| 1778142314 | 20.56° C | 63% | 992.1 hPa | 0 mm | - | - | - |
| 1778142017 | 20° C | 65% | 992.2 hPa | 0 mm | - | - | - |
| 1778141714 | 18.89° C | 69% | 992.5 hPa | 0 mm | - | - | - |
| 1778141417 | 17.78° C | 71% | 992.5 hPa | 0 mm | - | - | - |
| 1778141115 | 17.22° C | 74% | 992.4 hPa | 0 mm | - | - | - |
| 1778140814 | 16.11° C | 76% | 992.5 hPa | 0 mm | - | - | - |
| 1778140515 | 15.56° C | 77% | 992.5 hPa | 0 mm | - | - | - |
| 1778140217 | 14.44° C | 79% | 992.4 hPa | 0 mm | - | - | - |
| 1778139915 | 13.33° C | 80% | 992.5 hPa | 0 mm | - | - | - |
* Rain latest hour (hover to see other rain measurements)
** Current wind speed in m/s (hover to see current wind gust speed)